Retour au catalogue

USA 338

ActifMilitaireVLEO
NORAD 53883·PAYLOAD·🇺🇸 United States

Lancé Sep 24, 2022 depuis Vandenberg Space Force Base

Loading…

Prochains Passages (prochaines 24 heures)

TLE

PériméSource: Mike McCants

Époque: Jul 25, 2026, 21:39 UTC

1 53883U 22117A   26206.90238578 0.00012567  00000-0  19594-3 0    03
2 53883  73.5874 120.9885 0018570  59.2012 300.4582 15.53522323    09

Suivez USA 338 en temps réel avec AllMySat

Download on the App Store